When you browse on this site, cookies collect data to enhance your experience and personalize the content and advertising you see.
Visit our Privacy Policy to learn more. By continuing to use the site, you agree to this use of cookies and data.

Hourly Weather Kolesnye Gorki

Today, 6 August, Thursday

Time Temperature Precipitation Wind Pressure Humidity
00:00 +18°C° 0 mm 1 mps 749 mmHg 97%
01:00 +18°C° 0 mm 1 mps 750 mmHg 97%
02:00 +16°C° 0 mm 1 mps 750 mmHg 98%
03:00 +16°C° 0.1 mm 1 mps 750 mmHg 97%
04:00 +16°C° 0.1 mm 1 mps 750 mmHg 97%
05:00 +16°C° 0.1 mm 1 mps 750 mmHg 97%
06:00 +17°C° 0 mm 2 mps 751 mmHg 94%
07:00 +18°C° 0 mm 2 mps 751 mmHg 92%
08:00 +19°C° 0 mm 2 mps 751 mmHg 89%
09:00 +21°C° 0 mm 2 mps 752 mmHg 78%
10:00 +22°C° 0 mm 3 mps 752 mmHg 68%
11:00 +24°C° 0 mm 3 mps 752 mmHg 58%
12:00 +25°C° 0 mm 3 mps 752 mmHg 55%
13:00 +25°C° 0 mm 3 mps 752 mmHg 52%
14:00 +25°C° 0 mm 3 mps 752 mmHg 48%
15:00 +25°C° 0 mm 3 mps 752 mmHg 52%
16:00 +24°C° 0 mm 3 mps 752 mmHg 55%
17:00 +24°C° 0 mm 2 mps 752 mmHg 59%
18:00 +21°C° 0 mm 2 mps 752 mmHg 63%
19:00 +19°C° 0 mm 2 mps 753 mmHg 68%
20:00 +17°C° 0 mm 2 mps 753 mmHg 72%
21:00 +17°C° 0 mm 2 mps 753 mmHg 75%
22:00 +16°C° 0 mm 2 mps 753 mmHg 78%
23:00 +15°C° 0 mm 2 mps 754 mmHg 81%

Tomorrow, 7 August, Friday

Time Temperature Precipitation Wind Pressure Humidity
00:00 +15°C° 0 mm 2 mps 754 mmHg 84%
01:00 +14°C° 0 mm 2 mps 754 mmHg 86%
02:00 +14°C° 0 mm 2 mps 754 mmHg 89%
03:00 +14°C° 0 mm 2 mps 754 mmHg 89%
04:00 +14°C° 0 mm 1 mps 755 mmHg 89%
05:00 +14°C° 0 mm 1 mps 755 mmHg 89%
06:00 +16°C° 0 mm 1 mps 755 mmHg 82%
07:00 +19°C° 0 mm 1 mps 755 mmHg 76%
08:00 +20°C° 0 mm 1 mps 755 mmHg 70%
09:00 +22°C° 0 mm 1 mps 755 mmHg 64%
10:00 +23°C° 0 mm 1 mps 755 mmHg 59%
11:00 +25°C° 0 mm 2 mps 755 mmHg 53%
12:00 +24°C° 0 mm 2 mps 755 mmHg 55%
13:00 +24°C° 0 mm 1 mps 755 mmHg 57%
14:00 +24°C° 0 mm 1 mps 755 mmHg 59%
15:00 +24°C° 0.1 mm 1 mps 755 mmHg 63%
16:00 +24°C° 0.1 mm 1 mps 755 mmHg 67%
17:00 +23°C° 0.1 mm 1 mps 754 mmHg 71%
18:00 +22°C° 0 mm 1 mps 754 mmHg 77%
19:00 +20°C° 0 mm 1 mps 754 mmHg 82%
20:00 +19°C° 0 mm 1 mps 754 mmHg 88%
21:00 +18°C° 0 mm 1 mps 754 mmHg 90%
22:00 +16°C° 0 mm 1 mps 754 mmHg 91%
23:00 +15°C° 0 mm 0 mps 754 mmHg 93%

Day after tomorrow, 8 August, Saturday

Time Temperature Precipitation Wind Pressure Humidity
00:00 +14°C° 0 mm 0 mps 754 mmHg 93%
01:00 +15°C° 0 mm 1 mps 754 mmHg 94%
02:00 +15°C° 0 mm 1 mps 754 mmHg 94%
03:00 +15°C° 0 mm 1 mps 754 mmHg 94%
04:00 +15°C° 0 mm 1 mps 754 mmHg 94%
05:00 +15°C° 0 mm 1 mps 754 mmHg 94%
06:00 +18°C° 0 mm 1 mps 754 mmHg 87%
07:00 +20°C° 0 mm 1 mps 754 mmHg 80%
08:00 +22°C° 0 mm 1 mps 754 mmHg 74%
09:00 +23°C° 0.1 mm 1 mps 754 mmHg 69%
10:00 +24°C° 0.1 mm 1 mps 754 mmHg 65%
11:00 +25°C° 0.1 mm 1 mps 754 mmHg 60%
12:00 +25°C° 0.2 mm 1 mps 753 mmHg 65%
13:00 +24°C° 0.2 mm 1 mps 753 mmHg 70%
14:00 +24°C° 0.2 mm 1 mps 752 mmHg 74%
15:00 +23°C° 0.1 mm 1 mps 752 mmHg 77%
16:00 +23°C° 0.1 mm 1 mps 752 mmHg 80%
17:00 +22°C° 0.1 mm 1 mps 751 mmHg 83%
18:00 +21°C° 0 mm 1 mps 751 mmHg 87%
19:00 +20°C° 0 mm 1 mps 751 mmHg 90%
20:00 +19°C° 0 mm 1 mps 751 mmHg 94%
21:00 +18°C° 0 mm 1 mps 751 mmHg 94%
22:00 +18°C° 0 mm 1 mps 751 mmHg 94%
23:00 +16°C° 0 mm 2 mps 751 mmHg 95%

9 August, Sunday

Time Temperature Precipitation Wind Pressure Humidity
00:00 +16°C° 0 mm 2 mps 751 mmHg 95%
01:00 +16°C° 0 mm 2 mps 751 mmHg 96%
02:00 +15°C° 0 mm 2 mps 751 mmHg 96%
03:00 +15°C° 0 mm 2 mps 751 mmHg 96%
04:00 +15°C° 0 mm 2 mps 751 mmHg 96%
05:00 +15°C° 0 mm 2 mps 751 mmHg 95%
06:00 +17°C° 0 mm 2 mps 751 mmHg 89%
07:00 +19°C° 0 mm 2 mps 751 mmHg 83%
08:00 +21°C° 0 mm 2 mps 751 mmHg 77%
09:00 +23°C° 0 mm 2 mps 751 mmHg 70%
10:00 +24°C° 0 mm 2 mps 750 mmHg 64%
11:00 +26°C° 0 mm 3 mps 750 mmHg 58%
12:00 +26°C° 0.3 mm 2 mps 750 mmHg 62%
13:00 +25°C° 0.3 mm 2 mps 750 mmHg 66%
14:00 +25°C° 0.3 mm 2 mps 750 mmHg 70%
15:00 +25°C° 0.4 mm 2 mps 749 mmHg 73%
16:00 +24°C° 0.4 mm 2 mps 749 mmHg 76%
17:00 +24°C° 0.4 mm 1 mps 749 mmHg 79%
18:00 +23°C° 0 mm 1 mps 749 mmHg 83%
19:00 +21°C° 0 mm 1 mps 749 mmHg 87%
20:00 +20°C° 0 mm 1 mps 749 mmHg 91%
21:00 +19°C° 0 mm 1 mps 749 mmHg 92%
22:00 +19°C° 0 mm 1 mps 749 mmHg 93%
23:00 +18°C° 0 mm 1 mps 749 mmHg 94%

10 August, Monday

Time Temperature Precipitation Wind Pressure Humidity
00:00 +18°C° 0 mm 1 mps 749 mmHg 94%
01:00 +18°C° 0 mm 1 mps 749 mmHg 95%
02:00 +16°C° 0 mm 1 mps 749 mmHg 95%
03:00 +16°C° 0 mm 1 mps 749 mmHg 96%
04:00 +16°C° 0 mm 1 mps 749 mmHg 96%
05:00 +16°C° 0 mm 1 mps 749 mmHg 96%
06:00 +19°C° 0 mm 1 mps 749 mmHg 91%
07:00 +21°C° 0 mm 1 mps 749 mmHg 85%
08:00 +22°C° 0 mm 1 mps 749 mmHg 80%
09:00 +24°C° 0 mm 1 mps 749 mmHg 72%
10:00 +25°C° 0 mm 2 mps 749 mmHg 64%
11:00 +27°C° 0 mm 2 mps 749 mmHg 56%
12:00 +27°C° 0 mm 2 mps 749 mmHg 53%
13:00 +27°C° 0 mm 2 mps 748 mmHg 51%
14:00 +28°C° 0 mm 2 mps 748 mmHg 49%
15:00 +27°C° 0.1 mm 2 mps 748 mmHg 55%
16:00 +27°C° 0.1 mm 2 mps 748 mmHg 62%
17:00 +26°C° 0.1 mm 2 mps 748 mmHg 69%
18:00 +24°C° 0.1 mm 2 mps 748 mmHg 76%
19:00 +21°C° 0.1 mm 2 mps 748 mmHg 84%
20:00 +19°C° 0.1 mm 2 mps 747 mmHg 92%
21:00 +19°C° 0 mm 2 mps 748 mmHg 93%
22:00 +18°C° 0 mm 2 mps 748 mmHg 95%
23:00 +18°C° 0 mm 2 mps 748 mmHg 96%

11 August, Tuesday

Time Temperature Precipitation Wind Pressure Humidity
00:00 +17°C° 0 mm 2 mps 748 mmHg 96%
01:00 +17°C° 0 mm 2 mps 748 mmHg 96%
02:00 +16°C° 0 mm 2 mps 748 mmHg 96%
03:00 +16°C° 0 mm 2 mps 748 mmHg 97%
04:00 +16°C° 0 mm 2 mps 748 mmHg 97%
05:00 +16°C° 0 mm 2 mps 748 mmHg 97%
06:00 +16°C° 0 mm 2 mps 748 mmHg 93%
07:00 +17°C° 0 mm 3 mps 748 mmHg 89%
08:00 +18°C° 0 mm 3 mps 748 mmHg 85%
09:00 +18°C° 0 mm 3 mps 749 mmHg 80%
10:00 +19°C° 0 mm 3 mps 749 mmHg 75%
11:00 +19°C° 0 mm 3 mps 749 mmHg 70%
12:00 +20°C° 0 mm 3 mps 749 mmHg 67%
13:00 +21°C° 0 mm 3 mps 749 mmHg 64%
14:00 +22°C° 0 mm 3 mps 749 mmHg 62%
15:00 +21°C° 0 mm 3 mps 749 mmHg 62%
16:00 +21°C° 0 mm 3 mps 749 mmHg 63%
17:00 +20°C° 0 mm 4 mps 749 mmHg 64%
18:00 +18°C° 0 mm 3 mps 749 mmHg 71%
19:00 +17°C° 0 mm 3 mps 749 mmHg 77%
20:00 +15°C° 0 mm 2 mps 749 mmHg 84%
21:00 +14°C° 0 mm 2 mps 749 mmHg 87%
22:00 +13°C° 0 mm 3 mps 749 mmHg 90%
23:00 +12°C° 0 mm 3 mps 749 mmHg 94%
Show more